VIV703 MMMX-MMAA

Flight info

Callsign VIV703
Flight time 0h 36m
Altitude 26000
Route TEVOS2A TEVOS UT116 ANALU ANALU1B
Aircraft A20N/M-SDE2E3FGHIRWXY/LB1

Departure

Time 2026-05-08 01:05
Airport Mexico City Benito Juárez International Airport (MMMX)

Arrival

Time 2026-05-08 01:42
Airport General Juan N. Álvarez International Airport (MMAA)
Time Latitude Longitude Altitude Speed Heading
2026-05-08 00:44 19.43368 -99.08386 7360 ft 0 kts 329°
2026-05-08 00:57 19.43358 -99.08377 7360 ft 2 kts 301°
2026-05-08 00:57 19.43349 -99.08368 7360 ft 1 kts 339°
2026-05-08 00:57 19.43337 -99.08363 7360 ft 2 kts 326°
2026-05-08 00:57 19.43326 -99.08355 7360 ft 0 kts 329°
2026-05-08 00:58 19.43317 -99.08350 7360 ft 1 kts 315°
2026-05-08 00:58 19.43310 -99.08337 7360 ft 2 kts 293°
2026-05-08 00:58 19.43306 -99.08323 7360 ft 2 kts 270°
2026-05-08 00:58 19.43308 -99.08308 7360 ft 2 kts 248°
2026-05-08 00:59 19.43312 -99.08302 7360 ft 1 kts 234°
2026-05-08 00:59 19.43314 -99.08298 7359 ft 0 kts 238°
2026-05-08 01:01 19.43313 -99.08300 7359 ft 1 kts 239°
2026-05-08 01:01 19.43300 -99.08322 7359 ft 7 kts 239°
2026-05-08 01:02 19.43259 -99.08395 7358 ft 16 kts 239°
2026-05-08 01:02 19.43194 -99.08511 7357 ft 19 kts 239°
2026-05-08 01:02 19.43122 -99.08639 7354 ft 20 kts 240°
2026-05-08 01:02 19.43044 -99.08778 7349 ft 23 kts 239°
2026-05-08 01:03 19.42982 -99.08889 7345 ft 14 kts 239°
2026-05-08 01:03 19.42926 -99.08987 7342 ft 16 kts 236°
2026-05-08 01:03 19.42864 -99.09044 7341 ft 0 kts 208°
2026-05-08 01:03 19.42857 -99.09049 7341 ft 2 kts 208°
2026-05-08 01:04 19.42825 -99.09066 7340 ft 8 kts 208°
2026-05-08 01:04 19.42763 -99.09067 7339 ft 11 kts 104°
2026-05-08 01:04 19.42796 -99.08981 7340 ft 13 kts 57°
2026-05-08 01:04 19.42879 -99.08837 7344 ft 48 kts 59°
2026-05-08 01:05 19.43168 -99.08321 7357 ft 111 kts 59°
2026-05-08 01:05 19.43657 -99.07455 7349 ft 163 kts 59°
2026-05-08 01:05 19.44257 -99.06396 7757 ft 172 kts 60°
2026-05-08 01:05 19.44886 -99.05296 8367 ft 176 kts 60°
2026-05-08 01:06 19.45512 -99.04197 8993 ft 176 kts 60°
2026-05-08 01:06 19.46139 -99.03091 9342 ft 181 kts 60°
2026-05-08 01:06 19.46808 -99.01903 9575 ft 194 kts 61°
2026-05-08 01:06 19.47518 -99.00639 9816 ft 207 kts 61°
2026-05-08 01:07 19.48296 -98.99252 9984 ft 226 kts 60°
2026-05-08 01:07 19.49121 -98.97785 10277 ft 241 kts 62°
2026-05-08 01:07 19.49743 -98.96103 10546 ft 255 kts 86°
2026-05-08 01:07 19.49469 -98.94218 10941 ft 265 kts 115°
2026-05-08 01:08 19.48335 -98.92686 11493 ft 270 kts 142°
2026-05-08 01:08 19.46785 -98.91580 12075 ft 274 kts 146°
2026-05-08 01:08 19.45176 -98.90442 12695 ft 279 kts 147°
2026-05-08 01:08 19.43564 -98.89291 13381 ft 280 kts 147°
2026-05-08 01:09 19.41943 -98.88129 14008 ft 284 kts 147°
2026-05-08 01:09 19.40298 -98.86948 14664 ft 288 kts 147°
2026-05-08 01:09 19.38642 -98.85756 15341 ft 290 kts 147°
2026-05-08 01:09 19.36969 -98.84550 16020 ft 292 kts 146°
2026-05-08 01:10 19.35278 -98.83331 16673 ft 294 kts 147°
2026-05-08 01:10 19.33478 -98.82319 17285 ft 296 kts 163°
2026-05-08 01:10 19.31454 -98.81944 17838 ft 300 kts 179°
2026-05-08 01:10 19.29312 -98.82028 18140 ft 315 kts 184°
2026-05-08 01:11 19.27057 -98.82189 18403 ft 331 kts 184°
2026-05-08 01:11 19.24710 -98.82353 18650 ft 346 kts 184°
2026-05-08 01:11 19.22254 -98.82513 18888 ft 360 kts 183°
2026-05-08 01:11 19.19684 -98.82671 19148 ft 373 kts 183°
2026-05-08 01:12 19.17070 -98.82828 19623 ft 377 kts 183°
2026-05-08 01:12 19.14434 -98.82984 20193 ft 379 kts 183°
2026-05-08 01:12 19.11808 -98.83141 20795 ft 379 kts 183°
2026-05-08 01:12 19.09188 -98.83295 21377 ft 380 kts 182°
2026-05-08 01:13 19.06520 -98.83453 21920 ft 382 kts 182°
2026-05-08 01:13 19.03863 -98.83611 22474 ft 383 kts 182°
2026-05-08 01:13 19.01223 -98.83765 23000 ft 386 kts 182°
2026-05-08 01:13 18.98525 -98.83924 23553 ft 387 kts 183°
2026-05-08 01:14 18.95818 -98.84088 24232 ft 385 kts 184°
2026-05-08 01:14 18.93172 -98.84354 24916 ft 383 kts 186°
2026-05-08 01:14 18.90541 -98.84752 25443 ft 385 kts 188°
2026-05-08 01:14 18.87862 -98.85178 25866 ft 390 kts 188°
2026-05-08 01:15 18.85154 -98.85608 26238 ft 394 kts 188°
2026-05-08 01:15 18.82431 -98.86042 26331 ft 397 kts 188°
2026-05-08 01:15 18.79688 -98.86481 26316 ft 397 kts 188°
2026-05-08 01:15 18.76964 -98.86917 26301 ft 397 kts 188°
2026-05-08 01:16 18.74225 -98.87355 26281 ft 397 kts 188°
2026-05-08 01:16 18.71471 -98.87795 26270 ft 398 kts 188°
2026-05-08 01:16 18.68724 -98.88234 26255 ft 397 kts 188°
2026-05-08 01:16 18.65982 -98.88672 26250 ft 397 kts 188°
2026-05-08 01:17 18.63243 -98.89108 26232 ft 397 kts 188°
2026-05-08 01:17 18.60528 -98.89541 26209 ft 398 kts 188°
2026-05-08 01:17 18.57766 -98.89980 26199 ft 398 kts 188°
2026-05-08 01:17 18.55026 -98.90415 26197 ft 398 kts 188°
2026-05-08 01:18 18.52297 -98.90849 26189 ft 398 kts 188°
2026-05-08 01:18 18.49549 -98.91286 26172 ft 397 kts 188°
2026-05-08 01:18 18.46817 -98.91721 26162 ft 397 kts 188°
2026-05-08 01:18 18.44110 -98.92256 26156 ft 398 kts 192°
2026-05-08 01:19 18.41424 -98.93004 26142 ft 398 kts 197°
2026-05-08 01:19 18.38800 -98.93960 26133 ft 398 kts 200°
2026-05-08 01:19 18.36186 -98.95012 26130 ft 399 kts 200°
2026-05-08 01:19 18.33620 -98.96057 26116 ft 398 kts 200°
2026-05-08 01:20 18.31010 -98.97120 26104 ft 399 kts 200°
2026-05-08 01:20 18.28429 -98.98169 26091 ft 400 kts 200°
2026-05-08 01:20 18.25812 -98.99232 26080 ft 399 kts 200°
2026-05-08 01:20 18.23227 -99.00280 26069 ft 399 kts 200°
2026-05-08 01:21 18.20626 -99.01334 26058 ft 399 kts 200°
2026-05-08 01:21 18.18031 -99.02385 26051 ft 399 kts 200°
2026-05-08 01:21 18.15418 -99.03442 26043 ft 399 kts 200°
2026-05-08 01:21 18.12854 -99.04479 26037 ft 399 kts 200°
2026-05-08 01:22 18.10262 -99.05527 26035 ft 399 kts 200°
2026-05-08 01:22 18.07659 -99.06580 26029 ft 399 kts 200°
2026-05-08 01:22 18.05053 -99.07634 26023 ft 398 kts 200°
2026-05-08 01:22 18.02477 -99.08675 26017 ft 399 kts 200°
2026-05-08 01:23 17.99874 -99.09727 26020 ft 399 kts 200°
2026-05-08 01:23 17.97264 -99.10783 26013 ft 400 kts 200°
2026-05-08 01:23 17.94666 -99.11833 25764 ft 399 kts 200°
2026-05-08 01:23 17.92075 -99.12881 25489 ft 396 kts 200°
2026-05-08 01:24 17.89535 -99.13906 25137 ft 393 kts 199°
2026-05-08 01:24 17.86992 -99.14929 24710 ft 390 kts 199°
2026-05-08 01:24 17.84454 -99.15949 24195 ft 389 kts 199°
2026-05-08 01:24 17.81934 -99.16962 23661 ft 388 kts 199°
2026-05-08 01:25 17.79405 -99.17982 23128 ft 388 kts 199°
2026-05-08 01:25 17.76858 -99.19009 22557 ft 387 kts 198°
2026-05-08 01:25 17.74377 -99.20010 22003 ft 387 kts 198°
2026-05-08 01:25 17.71852 -99.21024 21362 ft 389 kts 199°
2026-05-08 01:26 17.69320 -99.22041 20810 ft 388 kts 199°
2026-05-08 01:26 17.66803 -99.23080 20262 ft 387 kts 201°
2026-05-08 01:26 17.64378 -99.24244 19729 ft 387 kts 204°
2026-05-08 01:26 17.61999 -99.25567 19185 ft 387 kts 206°
2026-05-08 01:27 17.59645 -99.26933 18637 ft 386 kts 207°
2026-05-08 01:27 17.57306 -99.28297 18095 ft 385 kts 207°
2026-05-08 01:27 17.54970 -99.29656 17556 ft 384 kts 207°
2026-05-08 01:27 17.52625 -99.31017 17015 ft 383 kts 207°
2026-05-08 01:28 17.50252 -99.32328 16453 ft 382 kts 204°
2026-05-08 01:28 17.47815 -99.33428 15892 ft 380 kts 199°
2026-05-08 01:28 17.45336 -99.34319 15350 ft 379 kts 196°
2026-05-08 01:28 17.42805 -99.35146 14802 ft 378 kts 195°
2026-05-08 01:29 17.40319 -99.35950 14290 ft 377 kts 195°
2026-05-08 01:29 17.37787 -99.36768 13742 ft 376 kts 196°
2026-05-08 01:29 17.35287 -99.37577 13214 ft 376 kts 196°
2026-05-08 01:29 17.32810 -99.38380 12707 ft 374 kts 196°
2026-05-08 01:30 17.30319 -99.39189 12228 ft 370 kts 196°
2026-05-08 01:30 17.27884 -99.39982 12046 ft 357 kts 196°
2026-05-08 01:30 17.25574 -99.40735 11957 ft 341 kts 196°
2026-05-08 01:30 17.23347 -99.41460 11898 ft 326 kts 196°
2026-05-08 01:31 17.21226 -99.42152 11804 ft 312 kts 195°
2026-05-08 01:31 17.19182 -99.42815 11740 ft 298 kts 196°
2026-05-08 01:31 17.17256 -99.43439 11680 ft 285 kts 195°
2026-05-08 01:31 17.15395 -99.44043 11591 ft 273 kts 195°
2026-05-08 01:32 17.13568 -99.44633 11209 ft 276 kts 195°
2026-05-08 01:32 17.11727 -99.45225 10820 ft 277 kts 195°
2026-05-08 01:32 17.09878 -99.45822 10432 ft 277 kts 196°
2026-05-08 01:32 17.08035 -99.46418 10047 ft 277 kts 196°
2026-05-08 01:33 17.06189 -99.47015 9713 ft 276 kts 196°
2026-05-08 01:33 17.04374 -99.47604 9353 ft 272 kts 197°
2026-05-08 01:33 17.02573 -99.48189 8982 ft 264 kts 197°
2026-05-08 01:33 17.00841 -99.48751 8630 ft 255 kts 197°
2026-05-08 01:34 16.99174 -99.49291 8309 ft 251 kts 197°
2026-05-08 01:34 16.97496 -99.49836 7974 ft 250 kts 197°
2026-05-08 01:34 16.95847 -99.50370 7625 ft 250 kts 196°
2026-05-08 01:34 16.94179 -99.50908 7261 ft 251 kts 197°
2026-05-08 01:35 16.92498 -99.51446 6905 ft 253 kts 197°
2026-05-08 01:35 16.90791 -99.51997 6510 ft 255 kts 197°
2026-05-08 01:35 16.89100 -99.52547 6151 ft 256 kts 197°
2026-05-08 01:35 16.87398 -99.53094 5813 ft 256 kts 197°
2026-05-08 01:36 16.85687 -99.53640 5467 ft 257 kts 198°
2026-05-08 01:36 16.83971 -99.54192 5120 ft 257 kts 198°
2026-05-08 01:36 16.82251 -99.54747 4770 ft 257 kts 198°
2026-05-08 01:36 16.80557 -99.55296 4485 ft 254 kts 198°
2026-05-08 01:37 16.78893 -99.55832 4191 ft 246 kts 198°
2026-05-08 01:37 16.77275 -99.56364 3838 ft 239 kts 199°
2026-05-08 01:37 16.75714 -99.56892 3511 ft 232 kts 199°
2026-05-08 01:37 16.74202 -99.57408 3174 ft 227 kts 199°
2026-05-08 01:38 16.72708 -99.57915 2860 ft 220 kts 199°
2026-05-08 01:38 16.71335 -99.58539 2516 ft 214 kts 222°
2026-05-08 01:38 16.70616 -99.59819 2267 ft 199 kts 269°
2026-05-08 01:38 16.70894 -99.61134 2351 ft 181 kts 293°
2026-05-08 01:39 16.71399 -99.62273 2110 ft 166 kts 295°
2026-05-08 01:39 16.71848 -99.63339 1877 ft 153 kts 293°
2026-05-08 01:39 16.72241 -99.64361 1726 ft 152 kts 291°
2026-05-08 01:39 16.72581 -99.65366 1526 ft 142 kts 288°
2026-05-08 01:40 16.72881 -99.66331 1345 ft 137 kts 288°
2026-05-08 01:40 16.73172 -99.67275 1176 ft 136 kts 288°
2026-05-08 01:40 16.73462 -99.68205 1010 ft 136 kts 288°
2026-05-08 01:40 16.73758 -99.69149 840 ft 136 kts 288°
2026-05-08 01:41 16.74047 -99.70071 669 ft 135 kts 288°
2026-05-08 01:41 16.74338 -99.71001 496 ft 134 kts 288°
2026-05-08 01:41 16.74628 -99.71928 324 ft 133 kts 288°
2026-05-08 01:41 16.74916 -99.72842 168 ft 133 kts 288°
2026-05-08 01:42 16.75203 -99.73756 32 ft 128 kts 287°
2026-05-08 01:42 16.75435 -99.74507 25 ft 81 kts 288°
2026-05-08 01:42 16.75562 -99.74893 25 ft 36 kts 308°
2026-05-08 01:42 16.75658 -99.75009 25 ft 18 kts 318°
2026-05-08 01:43 16.75764 -99.75079 26 ft 17 kts 335°
2026-05-08 01:43 16.75875 -99.75129 26 ft 15 kts 336°
2026-05-08 01:43 16.75968 -99.75169 26 ft 8 kts 337°
2026-05-08 01:43 16.75996 -99.75218 26 ft 8 kts 263°
2026-05-08 01:44 16.75972 -99.75283 26 ft 10 kts 245°
2026-05-08 01:44 16.75971 -99.75356 26 ft 10 kts 287°
2026-05-08 01:44 16.75995 -99.75432 26 ft 11 kts 288°
2026-05-08 01:44 16.76020 -99.75513 26 ft 12 kts 287°
2026-05-08 01:45 16.76049 -99.75576 26 ft 7 kts 333°
2026-05-08 01:45 16.76103 -99.75569 26 ft 6 kts 18°
2026-05-08 01:45 16.76133 -99.75559 26 ft 2 kts 17°
2026-05-08 01:45 16.76138 -99.75558 26 ft 0 kts 17°